• In Austria
  • List of Countries
  • For 7 days
  • Water Temperature
  • Satellite Maps
  • Weather Map
  • News
  • Weather Widgets
  • user-avatar
    Login

    Hourly Weather Gjirokaster

    Today, 25 February, Sunday

    Time Temperature Precipitation Wind Pressure Humidity
    00:00 +1°C° 0.1 mm 2 mps 644 mmHg 88%
    01:00 +1°C° 0.1 mm 2 mps 644 mmHg 87%
    02:00 -1°C° 0.1 mm 2 mps 644 mmHg 87%
    03:00 -1°C° 0.1 mm 2 mps 644 mmHg 87%
    04:00 -1°C° 0.1 mm 2 mps 644 mmHg 87%
    05:00 -1°C° 0.2 mm 3 mps 644 mmHg 87%
    06:00 -1°C° 0.2 mm 3 mps 644 mmHg 87%
    07:00 -1°C° 0.2 mm 3 mps 644 mmHg 88%
    08:00 0°C° 0.2 mm 3 mps 644 mmHg 86%
    09:00 0°C° 0.2 mm 4 mps 644 mmHg 84%
    10:00 +1°C° 0.2 mm 4 mps 644 mmHg 82%
    11:00 +1°C° 0.8 mm 4 mps 644 mmHg 83%
    12:00 +1°C° 0.8 mm 4 mps 644 mmHg 83%
    13:00 +1°C° 0.8 mm 4 mps 643 mmHg 84%
    14:00 0°C° 1.4 mm 4 mps 643 mmHg 86%
    15:00 0°C° 1.4 mm 4 mps 642 mmHg 88%
    16:00 0°C° 1.4 mm 4 mps 642 mmHg 90%
    17:00 -1°C° 3.3 mm 4 mps 641 mmHg 90%
    18:00 -1°C° 3.3 mm 4 mps 641 mmHg 91%
    19:00 -2°C° 3.3 mm 4 mps 640 mmHg 91%
    20:00 -2°C° 4.6 mm 4 mps 640 mmHg 92%
    21:00 -2°C° 4.6 mm 4 mps 639 mmHg 92%
    22:00 -3°C° 4.6 mm 4 mps 639 mmHg 92%
    23:00 -3°C° 4.6 mm 4 mps 638 mmHg 92%

    Tomorrow, 26 February, Monday

    Time Temperature Precipitation Wind Pressure Humidity
    00:00 -3°C° 4.6 mm 4 mps 638 mmHg 93%
    01:00 -4°C° 4.6 mm 4 mps 637 mmHg 93%
    02:00 -4°C° 1.5 mm 4 mps 637 mmHg 93%
    03:00 -4°C° 1.5 mm 4 mps 636 mmHg 92%
    04:00 -4°C° 1.5 mm 4 mps 636 mmHg 92%
    05:00 -5°C° 1 mm 4 mps 636 mmHg 92%
    06:00 -5°C° 1 mm 4 mps 636 mmHg 93%
    07:00 -5°C° 1 mm 4 mps 637 mmHg 93%
    08:00 -5°C° 0.5 mm 4 mps 637 mmHg 92%
    09:00 -4°C° 0.5 mm 4 mps 638 mmHg 92%
    10:00 -4°C° 0.5 mm 4 mps 638 mmHg 91%
    11:00 -2°C° 0 mm 3 mps 638 mmHg 90%
    12:00 -2°C° 0 mm 3 mps 638 mmHg 88%
    13:00 -1°C° 0 mm 2 mps 639 mmHg 87%
    14:00 -1°C° 0.3 mm 2 mps 639 mmHg 88%
    15:00 -1°C° 0.3 mm 2 mps 639 mmHg 89%
    16:00 -2°C° 0.3 mm 3 mps 639 mmHg 89%
    17:00 -2°C° 0.2 mm 3 mps 639 mmHg 90%
    18:00 -3°C° 0.2 mm 2 mps 639 mmHg 91%
    19:00 -3°C° 0.2 mm 2 mps 640 mmHg 92%
    20:00 -3°C° 0.1 mm 2 mps 640 mmHg 92%
    21:00 -4°C° 0.1 mm 2 mps 640 mmHg 92%
    22:00 -4°C° 0.1 mm 2 mps 641 mmHg 92%
    23:00 -5°C° 0.2 mm 3 mps 641 mmHg 92%

    Day after tomorrow, 27 February, Tuesday

    Time Temperature Precipitation Wind Pressure Humidity
    00:00 -5°C° 0.2 mm 3 mps 641 mmHg 92%
    01:00 -5°C° 0.2 mm 3 mps 641 mmHg 93%
    02:00 -5°C° 0.2 mm 3 mps 641 mmHg 92%
    03:00 -5°C° 0.2 mm 3 mps 641 mmHg 92%
    04:00 -5°C° 0.2 mm 2 mps 641 mmHg 92%
    05:00 -5°C° 0.1 mm 2 mps 642 mmHg 91%
    06:00 -5°C° 0.1 mm 2 mps 642 mmHg 90%
    07:00 -5°C° 0.1 mm 2 mps 642 mmHg 89%
    08:00 -4°C° 0 mm 2 mps 643 mmHg 85%
    09:00 -3°C° 0 mm 2 mps 643 mmHg 82%
    10:00 -2°C° 0 mm 2 mps 644 mmHg 78%
    11:00 -2°C° 0.1 mm 2 mps 644 mmHg 77%
    12:00 -2°C° 0.1 mm 2 mps 644 mmHg 75%
    13:00 -1°C° 0.1 mm 2 mps 644 mmHg 74%
    14:00 -1°C° 0.1 mm 2 mps 644 mmHg 75%
    15:00 -2°C° 0.1 mm 2 mps 644 mmHg 76%
    16:00 -2°C° 0.1 mm 2 mps 644 mmHg 77%
    17:00 -2°C° 0.1 mm 2 mps 644 mmHg 79%
    18:00 -3°C° 0.1 mm 2 mps 644 mmHg 82%
    19:00 -4°C° 0.1 mm 2 mps 644 mmHg 84%
    20:00 -4°C° 0.2 mm 2 mps 644 mmHg 84%
    21:00 -3°C° 0.2 mm 2 mps 644 mmHg 85%
    22:00 -4°C° 0.2 mm 3 mps 644 mmHg 85%
    23:00 -3°C° 0.1 mm 2 mps 644 mmHg 85%

    28 February, Wednesday

    Time Temperature Precipitation Wind Pressure Humidity
    00:00 -3°C° 0.1 mm 2 mps 643 mmHg 85%
    01:00 -3°C° 0.1 mm 2 mps 643 mmHg 85%
    02:00 -3°C° 0.1 mm 2 mps 643 mmHg 85%
    03:00 -3°C° 0.1 mm 2 mps 643 mmHg 85%
    04:00 -3°C° 0.1 mm 2 mps 642 mmHg 85%
    05:00 -3°C° 0 mm 2 mps 643 mmHg 85%
    06:00 -2°C° 0 mm 1 mps 643 mmHg 85%
    07:00 -2°C° 0 mm 1 mps 643 mmHg 84%
    08:00 -3°C° 0.1 mm 2 mps 644 mmHg 85%
    09:00 -1°C° 0.1 mm 3 mps 644 mmHg 86%
    10:00 0°C° 0.1 mm 3 mps 645 mmHg 86%
    11:00 -1°C° 0.1 mm 4 mps 645 mmHg 84%
    12:00 -1°C° 0.1 mm 4 mps 645 mmHg 82%
    13:00 -1°C° 0.1 mm 5 mps 646 mmHg 80%
    14:00 -1°C° 0 mm 5 mps 646 mmHg 78%
    15:00 -2°C° 0 mm 5 mps 646 mmHg 75%
    16:00 -2°C° 0 mm 5 mps 647 mmHg 73%
    17:00 -4°C° 0 mm 4 mps 647 mmHg 76%
    18:00 -5°C° 0 mm 4 mps 648 mmHg 79%
    19:00 -6°C° 0 mm 3 mps 648 mmHg 82%
    20:00 -7°C° 0 mm 3 mps 648 mmHg 82%
    21:00 -7°C° 0 mm 3 mps 649 mmHg 82%
    22:00 -8°C° 0 mm 3 mps 649 mmHg 82%
    23:00 -8°C° 0 mm 3 mps 649 mmHg 81%

    1 March, Thursday

    Time Temperature Precipitation Wind Pressure Humidity
    00:00 -8°C° 0 mm 3 mps 649 mmHg 80%
    01:00 -7°C° 0 mm 2 mps 649 mmHg 80%
    02:00 -8°C° 0 mm 2 mps 649 mmHg 78%
    03:00 -8°C° 0 mm 2 mps 649 mmHg 76%
    04:00 -8°C° 0 mm 2 mps 649 mmHg 75%
    05:00 -7°C° 0 mm 2 mps 649 mmHg 72%
    06:00 -7°C° 0 mm 2 mps 649 mmHg 70%
    07:00 -6°C° 0 mm 2 mps 650 mmHg 67%
    08:00 -2°C° 0 mm 1 mps 650 mmHg 61%
    09:00 0°C° 0 mm 1 mps 651 mmHg 56%
    10:00 +2°C° 0 mm 1 mps 651 mmHg 50%
    11:00 +2°C° 0 mm 1 mps 651 mmHg 51%
    12:00 +3°C° 0 mm 1 mps 651 mmHg 52%
    13:00 +3°C° 0 mm 2 mps 651 mmHg 52%
    14:00 +3°C° 0 mm 2 mps 650 mmHg 55%
    15:00 +3°C° 0 mm 2 mps 650 mmHg 58%
    16:00 +2°C° 0 mm 2 mps 650 mmHg 61%
    17:00 +1°C° 0 mm 2 mps 649 mmHg 64%
    18:00 -1°C° 0 mm 2 mps 649 mmHg 66%
    19:00 -2°C° 0 mm 3 mps 649 mmHg 69%
    20:00 -2°C° 0 mm 3 mps 649 mmHg 70%
    21:00 -2°C° 0 mm 3 mps 649 mmHg 70%
    22:00 -2°C° 0 mm 3 mps 649 mmHg 71%
    23:00 -3°C° 0 mm 4 mps 648 mmHg 70%

    2 March, Friday

    Time Temperature Precipitation Wind Pressure Humidity
    00:00 -3°C° 0 mm 4 mps 648 mmHg 70%
    01:00 -2°C° 0 mm 4 mps 648 mmHg 69%
    02:00 -3°C° 0 mm 4 mps 647 mmHg 69%
    03:00 -3°C° 0 mm 4 mps 647 mmHg 69%
    04:00 -3°C° 0 mm 4 mps 646 mmHg 69%
    05:00 -3°C° 0 mm 4 mps 646 mmHg 69%
    06:00 -2°C° 0 mm 4 mps 646 mmHg 70%
    07:00 -2°C° 0 mm 4 mps 646 mmHg 70%
    08:00 -1°C° 0 mm 4 mps 646 mmHg 71%
    09:00 +1°C° 0 mm 4 mps 647 mmHg 71%
    10:00 +3°C° 0 mm 4 mps 647 mmHg 72%
    11:00 +4°C° 0 mm 4 mps 647 mmHg 72%
    12:00 +4°C° 0 mm 4 mps 647 mmHg 72%
    13:00 +5°C° 0 mm 4 mps 647 mmHg 73%
    14:00 +5°C° 0 mm 4 mps 647 mmHg 74%
    15:00 +5°C° 0 mm 3 mps 647 mmHg 75%
    16:00 +4°C° 0 mm 3 mps 646 mmHg 77%
    17:00 +3°C° 0 mm 3 mps 646 mmHg 80%
    18:00 +2°C° 0 mm 3 mps 646 mmHg 84%
    19:00 +1°C° 0 mm 3 mps 646 mmHg 88%
    20:00 +1°C° 0 mm 3 mps 646 mmHg 88%
    21:00 +1°C° 0 mm 3 mps 646 mmHg 87%
    22:00 0°C° 0 mm 3 mps 646 mmHg 87%
    23:00 0°C° 0 mm 3 mps 646 mmHg 87%
    Show more